Location: Agadir Irigdalene
(31.2522°N, 8.7797°W)
Time: 15:34:56
(UTC+00:00)

CENTAUR R/B - Pass Details

Date: 01 December 2020
Orbit: 750 x 1438 km, 63.4° (Epoch: 11 January)

Event Time Altitude Azimuth Distance (km) Brightness Sun altitude
Rises 19:44:39 0° 232° (SW) 3,301 6.2 -27.8°
Reaches altitude 10° 19:47:06 10° 240° (WSW) 2,437 5.4 -28.3°
Maximum altitude 19:52:18 37° 308° (NW) 1,378 3.5 -29.4°
Enters shadow 19:54:58 26° 353° (N) 1,796 3.8 -29.9°
